{"data":{"norad_id":47596,"epoch":"2026-05-25T01:22:35.247360Z","epoch_age_seconds":80297,"freshness":"FRESH","line1":"1 47596U 21009BA  26145.05735240  .00060899  00000+0  61117-3 0  9997","line2":"2 47596  53.0423  10.4366 0004641  99.4837 260.6702 15.64926923292705","mean_motion":15.64926923,"eccentricity":0.0004641,"inclination_deg":53.0423,"raan_deg":10.4366,"arg_perigee_deg":99.4837,"mean_anomaly_deg":260.6702,"bstar":0.00061117,"rev_number":29270,"period_min":92.017076250403,"perigee_km":370.3155249631,"apogee_km":376.58234702889,"semimajor_km":6751.585935996,"source":"CELESTRAK","updated_at":"2026-05-25T13:38:16.558760Z"}}